Weather Roundup
Issued by NWS Chicago, IL

Home | Current Version | Previous Version | Text Only | Print | Product List | Glossary On
Versions: 1 2 3 4 5 6 7 8 9 10 11 12 13 14 15 16 17 18 19 20 21 22 23 24 25 26 27 28 29 30 31 32 33 34 35 36 37 38 39 40 41 42 43 44 45 46 47 48 49 50
000
NZUS59 KLOT 210106
HRRLOT

CHICAGO AREA WEATHER ROUNDUP
NATIONAL WEATHER SERVICE CHICAGO/ROMEOVILLE IL
800 PM CDT MON OCT 20 2014

NOTE: "FAIR" INDICATES FEW OR NO CLOUDS BELOW 12,000 FEET WITH NO
SIGNIFICANT WEATHER AND/OR OBSTRUCTIONS TO VISIBILITY.

* THESE STATIONS ARE NOT UNDER NWS QUALITY CONTROL. THEY ALSO MAY NOT
  REPORT WEATHER SUCH AS PRECIPITATION OR FOG.

ILZ005-006-012>014-019>023-210200-
NORTHEAST ILLINOIS

CITY           SKY/WX    TMP DP  RH WIND       PRES   REMARKS
OHARE          MOCLDY    53  45  74 N9        29.97R
MIDWAY         CLOUDY    56  47  71 N8        29.97R
AURORA         CLOUDY    56  40  55 N8        29.98R
LANSING*       CLOUDY    54  48  81 N9        29.97R
JOLIET*        CLOUDY    55  42  61 N5        29.97R
WAUKEGAN       CLOUDY    52  42  69 NW3       29.98R
DUPAGE AIRPORT CLOUDY    54  42  64 N10       29.97R
WHEELING       CLOUDY    54  42  64 N9        29.99R
KANKAKEE*      MOCLDY    53  48  83 N5        29.96S
MORRIS*        CLOUDY    53  45  73 N3        29.96R
LEWIS AIRPORT* CLOUDY    55  41  57 N6        29.97R
NORTHERLY IS     N/A     54  47  77 N10         N/A
$$

WIZ051-052-058>065-066-070>072-210200-
SOUTHEAST WISCONSIN

CITY           SKY/WX    TMP DP  RH WIND       PRES   REMARKS
MILWAUKEE      MOCLDY    53  42  66 NW8       29.98R
KENOSHA*       CLOUDY    52  42  69 NW7       29.98R
RACINE*        CLOUDY    52  42  69 NW5       30.00R
BURLINGTON     CLOUDY    50  40  68 N7        29.99R
WAUKESHA       CLOUDY    48  41  76 NW12      30.00R
WEST BEND      CLOUDY    50  41  71 NW5       29.99R
$$

INZ001>003-010>013-019-020-210200-
NORTHWEST INDIANA

CITY           SKY/WX    TMP DP  RH WIND       PRES   REMARKS
GARY*          MOCLDY    55  48  76 N12       29.97R
MICHIGAN CITY* NOT AVBL
RENSSELAER*    NOT AVBL
VALPARAISO     MOCLDY    52  46  80 N7        29.96S
$$

LMZ740>746-210200-
SOUTHERN LAKE MICHIGAN

STATION/POSITION TIME  SKY/WX   TEMP WIND        PRES    VSBY
                                AIR  DIR/SP/G
                 (UTC)          (F)  (DEG/KT/KT) (MB)    (MI)
HARRISON CRIB    0100            54  340/ 15/ 16   N/A
BURNHAM HARBOR   0100            54  360/  8/ 11   N/A
CALUMET HARBOR   0000            54  350/  8/ 13 1013.7R
BURNS HARBOR     NOT AVBL
MICHIGAN CITY    0100            53  340/ 19/ 22   N/A
$$

ABBREVIATIONS USED IN REMARKS
   TC - TEMPERATURE IN CELSIUS
  WCI - WIND CHILL INDEX
   HX - HEAT INDEX
  VSB - VISIBILITY
$$


USA.gov is the U.S. government's official web portal to all federal, state and local government web resources and services.